G5383 KSAN-KLAS

Flight info

Callsign G5383
Flight time N/A
Altitude 29000
Route PADRZ2 CHKNN SEBBY YELAH MISEN RNDRZ4
Aircraft GLF6/M-SBDE2E3FGHIJ4J5M1RWXY/LB1D1

Departure

Time 2026-04-25 16:07
Airport San Diego International Airport (KSAN)

Arrival

Time N/A
Airport Harry Reid International Airport (KLAS)
Time Latitude Longitude Altitude Speed Heading
2026-04-25 15:33 32.73527 -117.18860 17 ft 0 kts 15°
2026-04-25 15:58 32.73539 -117.18855 17 ft 10 kts 24°
2026-04-25 15:58 32.73530 -117.18806 18 ft 9 kts 172°
2026-04-25 15:58 32.73436 -117.18809 16 ft 18 kts 183°
2026-04-25 15:58 32.73377 -117.18716 17 ft 17 kts 71°
2026-04-25 15:59 32.73380 -117.18589 19 ft 16 kts 105°
2026-04-25 15:59 32.73340 -117.18427 20 ft 25 kts 107°
2026-04-25 15:59 32.73284 -117.18196 21 ft 31 kts 106°
2026-04-25 15:59 32.73227 -117.17958 19 ft 30 kts 106°
2026-04-25 16:00 32.73215 -117.17909 19 ft 0 kts 106°
2026-04-25 16:00 32.73193 -117.17818 19 ft 11 kts 106°
2026-04-25 16:00 32.73172 -117.17734 19 ft 2 kts 106°
2026-04-25 16:01 32.73172 -117.17733 19 ft 0 kts 106°
2026-04-25 16:01 32.73171 -117.17729 19 ft 4 kts 106°
2026-04-25 16:01 32.73154 -117.17660 20 ft 10 kts 106°
2026-04-25 16:01 32.73128 -117.17638 19 ft 2 kts 221°
2026-04-25 16:02 32.73122 -117.17661 19 ft 0 kts 226°
2026-04-25 16:06 32.73117 -117.17663 19 ft 5 kts 206°
2026-04-25 16:06 32.73057 -117.17732 17 ft 15 kts 270°
2026-04-25 16:07 32.73094 -117.17900 16 ft 45 kts 287°
2026-04-25 16:07 32.73133 -117.18055 18 ft 71 kts 287°
2026-04-25 16:07 32.73556 -117.19808 96 ft 183 kts 287°
2026-04-25 16:07 32.73950 -117.21398 750 ft 218 kts 286°
2026-04-25 16:08 32.74488 -117.23249 1562 ft 251 kts 300°
2026-04-25 16:08 32.75810 -117.24798 2420 ft 291 kts 327°
2026-04-25 16:08 32.77783 -117.25811 3288 ft 327 kts 334°
2026-04-25 16:08 32.79562 -117.27607 4258 ft 356 kts 305°
2026-04-25 16:09 32.80917 -117.30233 5079 ft 395 kts 300°
2026-04-25 16:09 32.82387 -117.32581 3763 ft 264 kts 323°